Weather History for Mount Sterling, KY

Change the Weather History Date:

Saturday, June 9, 2012

  Actual Average Record
Temperature  
Mean Temperature 70 °F -  
Max Temperature 86 °F 81 °F 80 °F (2013)
Min Temperature 53 °F 59 °F 53 °F (2014)
Cooling Degree Days 4    
Growing Degree Days 20 (Base 50)    
Moisture  
Dew Point 54 °F    
Average Humidity 61    
Maximum Humidity 100    
Minimum Humidity 29    
Precipitation  
Precipitation 0.00 in - - ()
Sea Level Pressure  
Sea Level Pressure 30.05 in    
Wind  
Wind Speed 3 mph ()    
Max Wind Speed 8 mph    
Max Gust Speed -    
Visibility 10.0 miles    
Events      
Averages and records for this station are not official NWS values.
T = Trace of Precipitation, MM = Missing Value Source: Averaged Metar Reports

Daily Weather History Graph

Daily Weather History Graph

Search for Another Location

Airport:

Trip Planner

Search our weather history database for the weather conditions in past years. The results will help you decide how hot, cold, wet, or windy it might be!

Date:

Astronomy

Jun. 09, 2012 Rise Set
Actual Time 6:12 AM EDT 8:58 PM EDT
Civil Twilight 5:41 AM EDT 9:29 PM EDT
Nautical Twilight 5:02 AM EDT 10:08 PM EDT
Astronomical Twilight 4:18 AM EDT 10:52 PM EDT
Moon 12:24 AM EDT (6/9) 11:52 AM EDT (6/9)
Length of Visible Light 15h 47m
Length of Day
14h 45m
Waning Gibbous, 68% of the Moon is Illuminated
Jun 9
Waning Gibbous
Jun 11
Last Quarter
Jun 19
New
Jun 26
First Quarter
Jul 3
Full

Hourly Weather History & Observations

Time (EDT) Temp. Heat Index Dew Point Humidity Pressure Visibility Wind Dir Wind Speed Gust Speed Precip Events Conditions
12:15 AM 62.6 °F - 55.4 °F 77% 30.07 in 10.0 mi WSW 3.5 mph - N/A   Mostly Cloudy
12:35 AM 62.6 °F - 55.4 °F 77% 30.06 in 10.0 mi SSW 3.5 mph - N/A   Scattered Clouds
12:55 AM 60.8 °F - 55.4 °F 82% 30.06 in 10.0 mi NNW 3.5 mph - N/A   Clear
1:15 AM 62.6 °F - 55.4 °F 77% 30.06 in 10.0 mi Calm Calm - N/A   Clear
1:35 AM 59.0 °F - 55.4 °F 88% 30.06 in 10.0 mi Calm Calm - N/A   Clear
1:55 AM 59.0 °F - 55.4 °F 88% 30.06 in 10.0 mi Calm Calm - N/A   Clear
2:15 AM 55.4 °F - 53.6 °F 94% 30.06 in 10.0 mi SSW 3.5 mph - N/A   Clear
2:35 AM 55.4 °F - 53.6 °F 94% 30.06 in 10.0 mi SSW 3.5 mph - N/A   Clear
2:55 AM 55.4 °F - 53.6 °F 94% 30.05 in 10.0 mi SW 3.5 mph - N/A   Clear
3:15 AM 57.2 °F - 53.6 °F 88% 30.05 in 10.0 mi Calm Calm - N/A   Clear
3:35 AM 59.0 °F - 53.6 °F 82% 30.05 in 10.0 mi Calm Calm - N/A   Clear
3:55 AM 53.6 °F - 53.6 °F 100% 30.05 in 10.0 mi Calm Calm - N/A   Clear
4:15 AM 55.4 °F - 53.6 °F 94% 30.04 in 10.0 mi Calm Calm - N/A   Clear
4:35 AM 53.6 °F - 51.8 °F 94% 30.05 in 10.0 mi SW 3.5 mph - N/A   Clear
4:55 AM 53.6 °F - 53.6 °F 100% 30.05 in 10.0 mi SW 3.5 mph - N/A   Clear
5:15 AM 53.6 °F - 51.8 °F 94% 30.05 in 10.0 mi SW 3.5 mph - N/A   Clear
5:35 AM 53.6 °F - 53.6 °F 100% 30.06 in 10.0 mi SW 4.6 mph - N/A   Clear
5:55 AM 53.6 °F - 51.8 °F 94% 30.06 in 10.0 mi SW 3.5 mph - N/A   Clear
6:15 AM 53.6 °F - 51.8 °F 94% 30.07 in 10.0 mi SW 3.5 mph - N/A   Clear
6:35 AM 53.6 °F - 51.8 °F 94% 30.08 in 10.0 mi SW 4.6 mph - N/A   Clear
6:55 AM 53.6 °F - 53.6 °F 100% 30.08 in 10.0 mi SW 3.5 mph - N/A   Clear
7:15 AM 57.2 °F - 53.6 °F 88% 30.08 in 10.0 mi SW 5.8 mph - N/A   Clear
7:35 AM 60.8 °F - 53.6 °F 77% 30.08 in 10.0 mi SW 4.6 mph - N/A   Clear
7:55 AM 60.8 °F - 55.4 °F 82% 30.08 in 10.0 mi SW 3.5 mph - N/A   Clear
8:15 AM 64.4 °F - 57.2 °F 77% 30.09 in 10.0 mi SSW 3.5 mph - N/A   Clear
8:35 AM 69.8 °F - 55.4 °F 60% 30.09 in 10.0 mi SSW 4.6 mph - N/A   Clear
8:55 AM 71.6 °F - 55.4 °F 57% 30.09 in 10.0 mi SSW 4.6 mph - N/A   Clear
9:15 AM 73.4 °F - 55.4 °F 53% 30.10 in 10.0 mi SW 3.5 mph - N/A   Clear
9:35 AM 73.4 °F - 55.4 °F 53% 30.10 in 10.0 mi WSW 5.8 mph - N/A   Clear
9:55 AM 73.4 °F - 55.4 °F 53% 30.10 in 10.0 mi WSW 5.8 mph - N/A   Clear
10:15 AM 77.0 °F - 55.4 °F 47% 30.10 in 10.0 mi WSW 3.5 mph - N/A   Clear
10:35 AM 77.0 °F - 53.6 °F 44% 30.10 in 10.0 mi WSW 4.6 mph - N/A   Clear
10:55 AM 78.8 °F - 53.6 °F 42% 30.09 in 10.0 mi WSW 4.6 mph - N/A   Clear
11:15 AM 80.6 °F - 51.8 °F 37% 30.09 in 10.0 mi SW 6.9 mph - N/A   Clear
11:35 AM 80.6 °F - 50.0 °F 34% 30.09 in 10.0 mi SW 5.8 mph - N/A   Clear
11:55 AM 78.8 °F - 50.0 °F 36% 30.08 in 10.0 mi SW 4.6 mph - N/A   Clear
12:15 PM 80.6 °F - 50.0 °F 34% 30.08 in 10.0 mi West 3.5 mph - N/A   Clear
12:35 PM 82.4 °F - 51.8 °F 35% 30.08 in 10.0 mi WNW 5.8 mph - N/A   Clear
12:55 PM 80.6 °F - 48.2 °F 32% 30.08 in 10.0 mi Calm Calm - N/A   Clear
1:15 PM 84.2 °F - 50.0 °F 30% 30.07 in 10.0 mi Calm Calm - N/A   Clear
1:35 PM 84.2 °F - 50.0 °F 30% 30.06 in 10.0 mi North 3.5 mph - N/A   Clear
1:55 PM 82.4 °F - 48.2 °F 30% 30.06 in 10.0 mi East 4.6 mph - N/A   Scattered Clouds
2:15 PM 82.4 °F - 50.0 °F 32% 30.05 in 10.0 mi Calm Calm - N/A   Scattered Clouds
2:35 PM 86.0 °F - 50.0 °F 29% 30.05 in 10.0 mi South 5.8 mph - N/A   Scattered Clouds
3:15 PM 86.0 °F - 51.8 °F 31% 30.03 in 10.0 mi WNW 6.9 mph - N/A   Clear
3:35 PM 86.0 °F - 51.8 °F 31% 30.03 in 10.0 mi Calm Calm - N/A   Scattered Clouds
3:55 PM 84.2 °F 82.8 °F 53.6 °F 35% 30.03 in 10.0 mi West 5.8 mph - N/A   Scattered Clouds
4:15 PM 84.2 °F - 50.0 °F 30% 30.02 in 10.0 mi SE 4.6 mph - N/A   Scattered Clouds
4:35 PM 84.2 °F - 50.0 °F 30% 30.02 in 10.0 mi Calm Calm - N/A   Scattered Clouds
4:55 PM 82.4 °F - 51.8 °F 35% 30.01 in 10.0 mi Calm Calm - N/A   Mostly Cloudy
5:15 PM 84.2 °F - 50.0 °F 30% 30.01 in 10.0 mi South 3.5 mph - N/A   Overcast
5:35 PM 82.4 °F - 51.8 °F 35% 30.02 in 10.0 mi SSE 3.5 mph - N/A   Mostly Cloudy
5:55 PM 82.4 °F 81.4 °F 53.6 °F 37% 30.01 in 10.0 mi Calm Calm - N/A   Scattered Clouds
6:15 PM 86.0 °F 84.2 °F 53.6 °F 33% 30.01 in 10.0 mi SW 3.5 mph - N/A   Scattered Clouds
6:35 PM 84.2 °F - 51.8 °F 33% 30.00 in 10.0 mi Calm Calm - N/A   Scattered Clouds
6:55 PM 84.2 °F 82.8 °F 53.6 °F 35% 30.00 in 10.0 mi WSW 3.5 mph - N/A   Scattered Clouds
7:15 PM 84.2 °F 82.8 °F 53.6 °F 35% 30.00 in 10.0 mi South 4.6 mph - N/A   Clear
7:35 PM 82.4 °F 81.4 °F 53.6 °F 37% 30.00 in 10.0 mi SSW 8.1 mph - N/A   Clear
7:55 PM 80.6 °F 80.3 °F 53.6 °F 39% 30.00 in 10.0 mi South 5.8 mph - N/A   Clear
8:15 PM 80.6 °F 80.5 °F 55.4 °F 42% 30.01 in 10.0 mi South 4.6 mph - N/A   Clear
8:35 PM 78.8 °F - 55.4 °F 44% 30.01 in 10.0 mi South 3.5 mph - N/A   Clear
8:55 PM 78.8 °F - 55.4 °F 44% 30.02 in 10.0 mi South 5.8 mph - N/A   Clear
9:15 PM 77.0 °F - 55.4 °F 47% 30.02 in 10.0 mi South 5.8 mph - N/A   Clear
9:35 PM 71.6 °F - 57.2 °F 60% 30.02 in 10.0 mi South 4.6 mph - N/A   Clear
9:55 PM 68.0 °F - 59.0 °F 73% 30.03 in 10.0 mi South 4.6 mph - N/A   Clear
10:15 PM 64.4 °F - 59.0 °F 83% 30.03 in 10.0 mi SSW 4.6 mph - N/A   Clear
10:35 PM 64.4 °F - 59.0 °F 83% 30.03 in 10.0 mi South 4.6 mph - N/A   Clear
10:55 PM 64.4 °F - 59.0 °F 83% 30.04 in 10.0 mi SSW 3.5 mph - N/A   Clear
11:15 PM 64.4 °F - 59.0 °F 83% 30.04 in 10.0 mi SSW 3.5 mph - N/A   Clear
11:35 PM 64.4 °F - 59.0 °F 83% 30.04 in 10.0 mi Calm Calm - N/A   Clear
11:55 PM 62.6 °F - 57.2 °F 82% 30.05 in 10.0 mi Calm Calm - N/A   Clear